DW9584 Weather Reports


time (UTC)temp
C
wind
direction
speed
KPH
gust
KPH
rain 1hr
cm
rain 24hr
cm
rain mn
cm
humidity
%
barometer
mb
20260506073016 17 202 0.0 3.2 0.00 0.00 0.00 78 1010.3
20260506071517 18 1 0.0 4.8 0.00 0.00 0.00 76 1010.3
20260506061526 18 54 0.0 3.2 0.00 0.00 0.00 76 1010.5
20260506044528 19 201 0.0 6.4 0.00 0.00 0.00 69 1011.1
20260506043028 18 122 0.0 6.4 0.00 0.00 0.00 69 1011.1
20260506041531 18 129 0.0 6.4 0.00 0.00 0.00 69 1011.2
20260506040028 18 169 1.6 4.8 0.00 0.00 0.00 68 1011.1
20260506034526 19 276 0.0 4.8 0.00 0.00 0.00 67 1011.1
20260506033027 19 231 0.0 3.2 0.00 0.00 0.00 67 1010.9
20260506031523 19 318 0.0 4.8 0.00 0.00 0.00 66 1011.0
20260506030023 19 204 0.0 4.8 0.00 0.00 0.00 65 1011.1
20260506024527 19 174 1.6 6.4 0.00 0.00 0.00 65 1011.1
20260506023025 19 348 0.0 3.2 0.00 0.00 0.00 65 1011.1
20260506021528 20 329 0.0 3.2 0.00 0.00 0.00 63 1011.1
20260506020026 20 124 0.0 6.4 0.00 0.00 0.00 61 1011.0
20260506014532 20 217 0.0 3.2 0.00 0.00 0.00 58 1010.9
20260506013028 21 276 0.0 4.8 0.00 0.00 0.00 55 1010.7
20260506011521 21 123 0.0 3.2 0.00 0.00 0.00 51 1010.5
20260506010028 22 248 0.0 3.2 0.00 0.00 0.00 50 1010.3
20260506004537 22 1 0.0 4.8 0.00 0.00 0.00 48 1010.1
20260506003031 23 182 3.2 9.7 0.00 0.00 0.00 46 1010.1
20260506001514 23 248 1.6 6.4 0.00 0.00 0.00 46 1009.9
20260506000016 23 262 0.0 4.8 0.00 0.00 0.00 46 1009.6
20260505234514 23 122 3.2 14.5 0.00 0.00 0.00 45 1009.6
20260505233027 24 185 1.6 8.0 0.00 0.00 0.00 43 1009.5
20260505231525 24 103 0.0 3.2 0.00 0.00 0.00 45 1009.4
20260505230026 25 262 1.6 9.7 0.00 0.00 0.00 43 1009.3
20260505224532 25 67 1.6 11.3 0.00 0.00 0.00 43 1009.3
20260505223028 25 227 0.0 14.5 0.00 0.00 0.00 42 1009.3
20260505221516 26 360 1.6 20.9 0.00 0.00 0.00 41 1009.4
20260505220025 26 228 4.8 20.9 0.00 0.00 0.00 37 1009.3
20260505214547 26 269 3.2 14.5 0.00 0.00 0.00 37 1009.2
20260505213043 26 220 4.8 16.1 0.00 0.00 0.00 35 1009.2
20260505211526 26 117 1.6 17.7 0.00 0.00 0.00 35 1009.1
20260505210029 26 150 6.4 22.5 0.00 0.00 0.00 34 1009.1
20260505204530 27 293 3.2 20.9 0.00 0.00 0.00 34 1009.2
20260505203022 27 68 3.2 24.1 0.00 0.00 0.00 33 1009.2
20260505201523 27 229 4.8 20.9 0.00 0.00 0.00 32 1009.2
20260505200017 27 291 6.4 22.5 0.00 0.00 0.00 31 1009.1
20260505194527 27 180 4.8 27.4 0.00 0.00 0.00 33 1009.1
20260505193040 27 193 1.6 16.1 0.00 0.00 0.00 34 1009.3
20260505191527 27 211 4.8 30.6 0.00 0.00 0.00 36 1009.4
20260505190032 27 241 3.2 19.3 0.00 0.00 0.00 35 1009.6
20260505184525 27 215 4.8 19.3 0.00 0.00 0.00 36 1009.8
20260505183036 27 262 6.4 14.5 0.00 0.00 0.00 37 1010.1
20260505181521 27 169 4.8 22.5 0.00 0.00 0.00 41 1010.2
20260505180031 26 265 3.2 14.5 0.00 0.00 0.00 42 1010.4
20260505174531 26 148 3.2 19.3 0.00 0.00 0.00 40 1010.8
20260505173035 26 188 3.2 14.5 0.00 0.00 0.00 42 1010.9
20260505171533 26 178 3.2 9.7 0.00 0.00 0.00 44 1011.0
20260505170026 26 304 3.2 11.3 0.00 0.00 0.00 44 1011.1
20260505164533 26 226 1.6 9.7 0.00 0.00 0.00 46 1011.0
20260505163027 25 243 1.6 9.7 0.00 0.00 0.00 45 1011.2
20260505161524 25 147 3.2 9.7 0.00 0.00 0.00 45 1011.2
20260505153032 23 36 0.0 14.5 0.00 0.00 0.00 52 1011.8
20260505151508 22 142 3.2 9.7 0.00 0.00 0.00 49 1011.9
20260505124514 17 238 3.2 8.0 0.00 0.00 0.00 63 1012.1
20260505123008 17 255 1.6 8.0 0.00 0.00 0.00 65 1011.9
20260505121507 16 181 3.2 6.4 0.00 0.00 0.00 69 1011.9
20260505120016 16 162 0.0 4.8 0.00 0.00 0.00 72 1011.9
20260505114520 15 229 0.0 3.2 0.00 0.00 0.00 76 1011.8
20260505113019 14 193 0.0 3.2 0.00 0.00 0.00 80 1011.8
20260505111519 13 206 0.0 3.2 0.00 0.00 0.00 85 1011.6
20260505101520 13 248 0.0 0.0 0.00 0.00 0.00 83 1011.3
20260505100029 13 248 0.0 3.2 0.00 0.00 0.00 82 1011.1
20260505094522 13 250 0.0 0.0 0.00 0.00 0.00 82 1011.0
20260505093022 13 250 0.0 0.0 0.00 0.00 0.00 82 1010.9
20260505091529 13 250 0.0 3.2 0.00 0.00 0.00 82 1011.0
20260505090036 13 193 0.0 3.2 0.00 0.00 0.00 83 1011.0
20260505084515 13 236 0.0 1.6 0.00 0.00 0.00 84 1010.8
20260505083013 13 234 0.0 3.2 0.00 0.00 0.00 83 1010.9
20260505081535 14 203 0.0 3.2 0.00 0.00 0.00 81 1010.9
20260505080044 14 220 0.0 1.6 0.00 0.00 0.00 79 1010.8
20260505074528 13 209 0.0 3.2 0.00 0.00 0.00 80 1010.9